TGL156A LEPA-LFLL

Flight info

Callsign TGL156A
Flight time N/A
Altitude 34000
Route MEROS DCT LAPIT DCT CHELY DCT LUMAS DCT SOFFY DCT MRM DCT MTL
Aircraft A320/M-SDE3FGHIRWY/LB1

Departure

Time N/A
Airport Palma de Mallorca Airport (LEPA)

Arrival

Time 2026-05-06 18:05
Airport Lyon Saint-Exupéry Airport (LFLL)
Time Latitude Longitude Altitude Speed Heading
2026-05-06 17:51 45.14361 4.84037 19789 ft 364 kts
2026-05-06 17:51 45.16714 4.84303 19351 ft 363 kts
2026-05-06 17:52 45.19184 4.85077 18885 ft 364 kts 14°
2026-05-06 17:52 45.21607 4.86121 18418 ft 363 kts 14°
2026-05-06 17:52 45.24020 4.87161 17922 ft 362 kts 14°
2026-05-06 17:52 45.26421 4.88196 17462 ft 359 kts 15°
2026-05-06 17:53 45.28808 4.89218 17019 ft 356 kts 14°
2026-05-06 17:53 45.31190 4.90137 16561 ft 353 kts 12°
2026-05-06 17:53 45.33566 4.90969 16123 ft 351 kts 11°
2026-05-06 17:53 45.35935 4.91760 15697 ft 348 kts 11°
2026-05-06 17:54 45.38288 4.92539 15271 ft 346 kts 11°
2026-05-06 17:54 45.40626 4.93324 14850 ft 345 kts 11°
2026-05-06 17:54 45.42950 4.94118 14426 ft 343 kts 11°
2026-05-06 17:54 45.45269 4.94918 14001 ft 342 kts 12°
2026-05-06 17:55 45.47578 4.95721 13562 ft 341 kts 12°
2026-05-06 17:55 45.49871 4.96524 13122 ft 338 kts 12°
2026-05-06 17:55 45.52148 4.97324 12696 ft 336 kts 12°
2026-05-06 17:55 45.54419 4.98028 12273 ft 332 kts
2026-05-06 17:56 45.56707 4.98106 11850 ft 327 kts 353°
2026-05-06 17:56 45.58957 4.97777 11441 ft 324 kts 352°
2026-05-06 17:56 45.61162 4.97459 11030 ft 322 kts 352°
2026-05-06 17:56 45.63388 4.97144 10611 ft 320 kts 352°
2026-05-06 17:57 45.65618 4.96829 10265 ft 316 kts 352°
2026-05-06 17:57 45.67753 4.96527 10070 ft 307 kts 352°
2026-05-06 17:57 45.69842 4.96232 9942 ft 297 kts 352°
2026-05-06 17:57 45.71881 4.95943 9568 ft 295 kts 352°
2026-05-06 17:58 45.73912 4.95651 9237 ft 291 kts 352°
2026-05-06 17:58 45.75917 4.95362 8847 ft 289 kts 352°
2026-05-06 17:58 45.77910 4.95073 8433 ft 286 kts 352°
2026-05-06 17:58 45.79879 4.94790 7764 ft 283 kts 352°
2026-05-06 17:59 45.81827 4.94511 7153 ft 279 kts 352°
2026-05-06 17:59 45.83754 4.94236 6678 ft 279 kts 352°
2026-05-06 17:59 45.85695 4.94108 6258 ft 279 kts
2026-05-06 17:59 45.87596 4.94651 5857 ft 278 kts 18°
2026-05-06 18:00 45.89335 4.95563 5712 ft 256 kts 18°
2026-05-06 18:00 45.90891 4.96665 5320 ft 247 kts 38°
2026-05-06 18:00 45.91991 4.98439 5175 ft 235 kts 60°
2026-05-06 18:00 45.92556 5.00612 5018 ft 233 kts 82°
2026-05-06 18:01 45.92665 5.02927 4706 ft 232 kts 97°
2026-05-06 18:01 45.92118 5.05059 4358 ft 229 kts 130°
2026-05-06 18:01 45.90890 5.06432 4023 ft 225 kts 161°
2026-05-06 18:01 45.89364 5.06816 3693 ft 223 kts 177°
2026-05-06 18:02 45.87809 5.06997 3376 ft 225 kts 177°
2026-05-06 18:02 45.86261 5.07180 3037 ft 220 kts 177°
2026-05-06 18:02 45.84757 5.07359 2758 ft 212 kts 176°
2026-05-06 18:02 45.83368 5.07529 2501 ft 190 kts 176°
2026-05-06 18:03 45.82143 5.07682 2272 ft 168 kts 177°
2026-05-06 18:03 45.81043 5.07820 2031 ft 151 kts 177°
2026-05-06 18:03 45.80033 5.07945 1834 ft 142 kts 177°
2026-05-06 18:03 45.79062 5.08062 1645 ft 138 kts 176°
2026-05-06 18:04 45.78104 5.08177 1459 ft 137 kts 176°
2026-05-06 18:04 45.77157 5.08290 1287 ft 136 kts 175°
2026-05-06 18:04 45.76219 5.08402 1101 ft 135 kts 175°
2026-05-06 18:04 45.75289 5.08512 930 ft 133 kts 175°
2026-05-06 18:05 45.74364 5.08625 775 ft 130 kts 174°
2026-05-06 18:05 45.73607 5.08727 779 ft 85 kts 175°
2026-05-06 18:05 45.73187 5.08779 789 ft 36 kts 175°
2026-05-06 18:05 45.73033 5.08798 791 ft 15 kts 184°
2026-05-06 18:06 45.72956 5.08701 792 ft 16 kts 253°
2026-05-06 18:06 45.72948 5.08631 792 ft 0 kts 264°
2026-05-06 18:07 45.72948 5.08630 792 ft 0 kts 264°
2026-05-06 18:07 45.72945 5.08580 792 ft 9 kts 264°
2026-05-06 18:07 45.72939 5.08485 790 ft 10 kts 265°
2026-05-06 18:07 45.72914 5.08399 790 ft 9 kts 231°
2026-05-06 18:08 45.72867 5.08360 790 ft 7 kts 194°
2026-05-06 18:08 45.72827 5.08358 791 ft 5 kts 178°
2026-05-06 18:08 45.72801 5.08359 791 ft 3 kts 176°
2026-05-06 18:08 45.72776 5.08362 791 ft 8 kts 175°
2026-05-06 18:09 45.72683 5.08373 791 ft 18 kts 173°
2026-05-06 18:09 45.72555 5.08390 796 ft 18 kts 175°
2026-05-06 18:09 45.72430 5.08405 797 ft 18 kts 176°
2026-05-06 18:09 45.72305 5.08418 799 ft 18 kts 175°
2026-05-06 18:10 45.72181 5.08434 801 ft 18 kts 174°
2026-05-06 18:10 45.72061 5.08448 803 ft 17 kts 174°
2026-05-06 18:10 45.71937 5.08464 802 ft 18 kts 175°
2026-05-06 18:10 45.71822 5.08479 802 ft 16 kts 174°
2026-05-06 18:11 45.71745 5.08489 802 ft 7 kts 178°
2026-05-06 18:11 45.71703 5.08471 802 ft 6 kts 216°
2026-05-06 18:11 45.71681 5.08411 800 ft 8 kts 236°
2026-05-06 18:11 45.71630 5.08400 800 ft 7 kts 182°
2026-05-06 18:12 45.71585 5.08385 800 ft 6 kts 195°
2026-05-06 18:12 45.71572 5.08380 800 ft 0 kts 194°